Lindcove
DateTemperatureDew Point
05/06 - 08:00 PM71.8°60.3°
05/06 - 07:45 PM72.7°57.3°
05/06 - 07:30 PM73.7°56.4°
05/06 - 07:15 PM74.9°55.8°
05/06 - 07:00 PM75.7°55.5°
05/06 - 06:45 PM76.2°54.9°
05/06 - 06:30 PM76.8°54.8°
05/06 - 06:15 PM77.1°54.4°
05/06 - 06:00 PM77.7°54.6°
05/06 - 05:45 PM78.0°54.2°
05/06 - 05:30 PM78.0°54.0°
05/06 - 05:15 PM77.7°53.3°
05/06 - 05:00 PM77.6°53.3°
05/06 - 04:45 PM77.6°52.9°
05/06 - 04:30 PM77.5°52.8°
05/06 - 04:15 PM77.4°51.9°
05/06 - 04:00 PM77.6°51.7°
05/06 - 03:45 PM77.1°52.1°
05/06 - 03:30 PM76.9°52.2°
05/06 - 03:15 PM75.9°51.5°
05/06 - 03:00 PM76.8°51.4°
05/06 - 02:45 PM75.9°51.3°
05/06 - 02:30 PM75.9°51.1°
05/06 - 02:15 PM75.0°50.3°
05/06 - 02:00 PM75.1°50.7°
05/06 - 01:45 PM74.9°51.0°
05/06 - 01:30 PM73.6°49.7°
05/06 - 01:15 PM73.4°49.8°
05/06 - 01:00 PM73.3°50.4°
05/06 - 12:45 PM72.5°50.4°
05/06 - 12:30 PM71.8°50.0°
05/06 - 12:15 PM71.7°49.8°
05/06 - 12:00 PM71.2°50.0°
05/06 - 11:45 AM70.5°49.4°
05/06 - 11:30 AM70.6°49.8°
05/06 - 11:15 AM69.5°49.5°
05/06 - 11:00 AM69.2°49.2°
05/06 - 10:45 AM69.2°49.5°
05/06 - 10:30 AM68.7°49.8°
05/06 - 10:15 AM67.9°49.7°
05/06 - 10:00 AM67.0°49.8°
05/06 - 09:45 AM66.5°49.8°
05/06 - 09:30 AM66.2°50.1°
05/06 - 09:15 AM65.3°50.1°
05/06 - 09:00 AM64.2°50.2°
05/06 - 08:45 AM63.8°51.9°
05/06 - 08:30 AM63.1°53.4°
05/06 - 08:15 AM61.6°53.6°
05/06 - 08:00 AM60.0°54.3°
05/06 - 07:45 AM58.3°56.8°
05/06 - 07:30 AM56.5°56.5°
05/06 - 07:15 AM54.1°54.1°
05/06 - 07:00 AM52.2°52.2°
05/06 - 06:45 AM50.7°50.7°
05/06 - 06:30 AM49.1°49.1°
05/06 - 06:15 AM48.5°48.5°
05/06 - 06:00 AM48.8°48.8°
05/06 - 05:45 AM48.9°48.9°
05/06 - 05:30 AM48.9°48.9°
05/06 - 05:15 AM48.8°48.8°
05/06 - 05:00 AM48.9°48.9°
05/06 - 04:45 AM49.6°49.6°
05/06 - 04:30 AM50.0°50.0°
05/06 - 04:15 AM50.0°50.0°
05/06 - 04:00 AM50.2°50.2°
05/06 - 03:45 AM50.2°50.2°
05/06 - 03:30 AM49.9°49.9°
05/06 - 03:15 AM50.5°50.5°
05/06 - 03:00 AM51.0°51.0°
05/06 - 02:45 AM50.7°50.7°
05/06 - 02:30 AM50.3°50.3°
05/06 - 02:15 AM50.9°50.9°
05/06 - 02:00 AM51.6°51.6°
05/06 - 01:45 AM51.7°51.7°
05/06 - 01:30 AM51.2°51.2°
05/06 - 01:15 AM51.5°51.5°
05/06 - 01:00 AM52.6°52.6°
05/06 - 12:45 AM53.4°53.4°
05/06 - 12:30 AM53.3°53.3°
05/06 - 12:15 AM53.5°53.5°
05/06 - 12:00 AM53.7°53.6°
05/05 - 11:45 PM53.9°53.7°
05/05 - 11:30 PM54.5°54.2°
05/05 - 11:15 PM53.9°53.5°
05/05 - 11:00 PM54.4°54.0°
05/05 - 10:45 PM55.0°54.4°
05/05 - 10:30 PM55.9°55.0°
05/05 - 10:15 PM56.7°55.5°
05/05 - 10:00 PM58.9°57.2°
05/05 - 09:45 PM59.8°57.7°
05/05 - 09:30 PM60.2°57.8°
05/05 - 09:15 PM61.5°58.7°
05/05 - 09:00 PM62.2°58.8°
05/05 - 08:45 PM63.2°59.1°
05/05 - 08:30 PM64.2°58.4°
05/05 - 08:15 PM64.4°55.8°
05/05 - 08:00 PM64.6°53.6°
05/05 - 07:45 PM65.0°52.0°
05/05 - 07:30 PM65.6°51.5°
05/05 - 07:15 PM66.1°50.5°
05/05 - 07:00 PM66.7°50.2°
05/05 - 06:45 PM67.3°50.2°
05/05 - 06:30 PM67.5°49.7°
05/05 - 06:15 PM67.7°49.7°
05/05 - 06:00 PM67.6°49.9°
05/05 - 05:45 PM67.3°50.3°
05/05 - 05:30 PM67.4°50.6°
05/05 - 05:15 PM66.5°50.9°
05/05 - 05:00 PM66.4°51.2°
05/05 - 04:45 PM66.1°51.0°
05/05 - 04:30 PM65.8°50.6°
05/05 - 04:15 PM66.6°49.1°
05/05 - 04:00 PM67.2°48.4°
05/05 - 03:45 PM66.8°48.3°
05/05 - 03:30 PM67.0°47.7°
05/05 - 03:15 PM67.1°49.5°
05/05 - 03:00 PM65.8°48.9°
05/05 - 02:45 PM65.5°48.7°
05/05 - 02:30 PM65.3°49.2°
05/05 - 02:15 PM65.3°49.1°
05/05 - 02:00 PM65.1°48.7°
05/05 - 01:45 PM64.7°48.3°
05/05 - 01:30 PM65.0°49.3°
05/05 - 01:15 PM65.0°49.8°
05/05 - 01:00 PM64.6°49.5°
05/05 - 12:45 PM64.6°49.2°
05/05 - 12:30 PM65.0°50.1°
05/05 - 12:15 PM63.0°50.4°
05/05 - 12:00 PM62.5°50.1°
05/05 - 11:45 AM61.8°51.3°
05/05 - 11:30 AM61.7°51.4°
05/05 - 11:15 AM61.2°51.3°
05/05 - 11:00 AM60.7°51.1°
05/05 - 10:45 AM59.9°51.5°
05/05 - 10:30 AM59.3°51.8°
05/05 - 10:15 AM58.5°52.3°
05/05 - 10:00 AM58.4°52.3°
05/05 - 09:45 AM57.9°52.0°
05/05 - 09:30 AM57.9°52.8°
05/05 - 09:15 AM57.0°53.2°
05/05 - 09:00 AM56.1°53.2°
05/05 - 08:45 AM55.6°53.5°
05/05 - 08:30 AM55.2°53.6°
05/05 - 08:15 AM55.4°53.6°
05/05 - 08:00 AM55.5°53.6°
05/05 - 07:45 AM55.5°53.2°
05/05 - 07:30 AM55.3°53.0°
05/05 - 07:15 AM55.2°52.9°
05/05 - 07:00 AM55.1°52.9°
05/05 - 06:45 AM55.0°52.9°
05/05 - 06:30 AM54.9°53.0°
05/05 - 06:15 AM54.8°53.3°
05/05 - 06:00 AM54.7°53.4°
05/05 - 05:45 AM54.6°53.3°
05/05 - 05:30 AM54.8°53.4°
05/05 - 05:15 AM54.8°53.5°
05/05 - 05:00 AM54.9°53.4°
05/05 - 04:45 AM55.1°53.4°
05/05 - 04:30 AM55.2°53.5°
05/05 - 04:15 AM55.2°53.7°
05/05 - 04:00 AM55.3°53.9°
05/05 - 03:45 AM55.2°54.0°
05/05 - 03:30 AM55.2°54.2°
05/05 - 03:15 AM55.2°54.4°
05/05 - 03:00 AM55.4°54.6°
05/05 - 02:45 AM55.6°54.8°
05/05 - 02:30 AM55.8°54.9°
05/05 - 02:15 AM55.9°54.8°
05/05 - 02:00 AM56.3°54.9°
05/05 - 01:45 AM56.3°54.6°
05/05 - 01:30 AM55.9°53.8°
05/05 - 01:15 AM56.3°53.8°
05/05 - 01:00 AM56.7°53.6°
05/05 - 12:45 AM56.5°53.4°
05/05 - 12:30 AM56.4°53.8°
05/05 - 12:15 AM56.3°53.4°
05/05 - 12:00 AM56.6°53.4°
05/04 - 11:45 PM57.1°52.9°
05/04 - 11:30 PM57.2°52.5°
05/04 - 11:15 PM57.3°52.2°
05/04 - 11:00 PM57.5°52.3°
05/04 - 10:45 PM57.7°52.1°
05/04 - 10:30 PM57.7°51.8°
05/04 - 10:15 PM58.0°51.5°
05/04 - 10:00 PM58.2°51.3°
05/04 - 09:45 PM58.5°51.0°
05/04 - 09:30 PM58.8°50.5°
05/04 - 09:15 PM59.0°50.3°
05/04 - 09:00 PM59.2°50.2°
05/04 - 08:45 PM59.2°50.5°